Terminal Aerodrome Forecast
Issued by NWS

Home | Current Version | Previous Version | Text Only | Print | Product List | Glossary On
Versions: 1 2 3 4 5 6 7 8 9 10 11 12 13 14 15 16 17 18 19 20 21 22 23 24 25 26 27 28 29 30 31 32 33 34 35 36 37 38 39 40 41 42 43 44 45 46 47
000
FTAK31 PAFA 210537
TAFAGA
TAF
PAGA 210537Z 2106/2206 00000KT P6SM VCFG SKC
      TEMPO 2106/2110 3SM BR SCT001
     FM211000 00000KT 3SM BR SCT001
     FM211800 00000KT P6SM SCT100 BKN200=

USA.gov is the U.S. government's official web portal to all federal, state and local government web resources and services.